When you browse on this site, cookies collect data to enhance your experience and personalize the content and advertising you see.
Visit our Privacy Policy to learn more. By continuing to use the site, you agree to this use of cookies and data.
  • In Lithuania
  • List of Countries
  • For 7 days
  • Water Temperature
  • Weather Map
  • Weather Widgets
  • user-avatar
    Login

    Hourly Weather Yulara

    Today, 19 September, Thursday

    Time Temperature Precipitation Wind Pressure Humidity
    00:00 +20°C° 0 mm 3 mps 718 mmHg 17%
    01:00 +20°C° 0 mm 3 mps 717 mmHg 18%
    02:00 +19°C° 0 mm 4 mps 717 mmHg 20%
    03:00 +19°C° 0 mm 4 mps 716 mmHg 21%
    04:00 +18°C° 0 mm 4 mps 717 mmHg 23%
    05:00 +18°C° 0 mm 3 mps 717 mmHg 24%
    06:00 +18°C° 0 mm 3 mps 717 mmHg 25%
    07:00 +22°C° 0 mm 5 mps 717 mmHg 21%
    08:00 +27°C° 0 mm 7 mps 718 mmHg 17%
    09:00 +32°C° 0 mm 9 mps 718 mmHg 13%
    10:00 +34°C° 0 mm 9 mps 718 mmHg 12%
    11:00 +37°C° 0 mm 10 mps 717 mmHg 10%
    12:00 +38°C° 0 mm 10 mps 716 mmHg 9%
    13:00 +38°C° 0 mm 10 mps 716 mmHg 9%
    14:00 +39°C° 0 mm 11 mps 715 mmHg 9%
    15:00 +39°C° 0 mm 11 mps 714 mmHg 9%
    16:00 +37°C° 0 mm 9 mps 714 mmHg 10%
    17:00 +34°C° 0 mm 8 mps 714 mmHg 11%
    18:00 +33°C° 0 mm 6 mps 713 mmHg 12%
    19:00 +32°C° 0 mm 7 mps 714 mmHg 13%
    20:00 +30°C° 0 mm 7 mps 714 mmHg 14%
    21:00 +30°C° 0 mm 7 mps 714 mmHg 15%
    22:00 +29°C° 0 mm 7 mps 714 mmHg 17%
    23:00 +27°C° 0 mm 7 mps 714 mmHg 18%

    Tomorrow, 20 September, Friday

    Time Temperature Precipitation Wind Pressure Humidity
    00:00 +26°C° 0 mm 7 mps 714 mmHg 20%
    01:00 +22°C° 0 mm 9 mps 714 mmHg 32%
    02:00 +18°C° 0 mm 10 mps 713 mmHg 45%
    03:00 +14°C° 0 mm 11 mps 713 mmHg 58%
    04:00 +15°C° 0 mm 9 mps 714 mmHg 63%
    05:00 +13°C° 0 mm 8 mps 715 mmHg 69%
    06:00 +12°C° 0 mm 7 mps 715 mmHg 74%
    07:00 +14°C° 0 mm 7 mps 716 mmHg 69%
    08:00 +15°C° 0 mm 8 mps 717 mmHg 63%
    09:00 +16°C° 0 mm 9 mps 718 mmHg 57%
    10:00 +18°C° 0 mm 8 mps 718 mmHg 51%
    11:00 +20°C° 0 mm 8 mps 718 mmHg 44%
    12:00 +22°C° 0 mm 7 mps 718 mmHg 38%
    13:00 +22°C° 0 mm 7 mps 718 mmHg 34%
    14:00 +23°C° 0 mm 6 mps 717 mmHg 30%
    15:00 +23°C° 0 mm 6 mps 717 mmHg 26%
    16:00 +22°C° 0 mm 6 mps 717 mmHg 23%
    17:00 +21°C° 0 mm 6 mps 718 mmHg 20%
    18:00 +19°C° 0 mm 6 mps 718 mmHg 17%
    19:00 +16°C° 0 mm 6 mps 719 mmHg 19%
    20:00 +14°C° 0 mm 6 mps 719 mmHg 21%
    21:00 +11°C° 0 mm 7 mps 720 mmHg 23%
    22:00 +10°C° 0 mm 7 mps 720 mmHg 25%
    23:00 +9°C° 0 mm 7 mps 720 mmHg 28%

    Day after tomorrow, 21 September, Saturday

    Time Temperature Precipitation Wind Pressure Humidity
    00:00 +8°C° 0 mm 7 mps 720 mmHg 31%
    01:00 +7°C° 0 mm 6 mps 720 mmHg 35%
    02:00 +5°C° 0 mm 6 mps 720 mmHg 40%
    03:00 +4°C° 0 mm 6 mps 720 mmHg 45%
    04:00 +5°C° 0 mm 5 mps 721 mmHg 48%
    05:00 +3°C° 0 mm 5 mps 721 mmHg 52%
    06:00 +3°C° 0 mm 4 mps 722 mmHg 56%
    07:00 +6°C° 0 mm 5 mps 722 mmHg 49%
    08:00 +8°C° 0 mm 5 mps 723 mmHg 43%
    09:00 +11°C° 0 mm 6 mps 724 mmHg 36%
    10:00 +14°C° 0 mm 6 mps 723 mmHg 31%
    11:00 +15°C° 0 mm 5 mps 723 mmHg 26%
    12:00 +17°C° 0 mm 5 mps 722 mmHg 21%
    13:00 +19°C° 0 mm 4 mps 721 mmHg 19%
    14:00 +20°C° 0 mm 4 mps 721 mmHg 17%
    15:00 +21°C° 0 mm 3 mps 720 mmHg 15%
    16:00 +20°C° 0 mm 3 mps 720 mmHg 16%
    17:00 +18°C° 0 mm 2 mps 720 mmHg 18%
    18:00 +17°C° 0 mm 2 mps 720 mmHg 20%
    19:00 +16°C° 0 mm 3 mps 721 mmHg 21%
    20:00 +14°C° 0 mm 4 mps 722 mmHg 21%
    21:00 +13°C° 0 mm 5 mps 722 mmHg 22%
    22:00 +12°C° 0 mm 5 mps 722 mmHg 24%
    23:00 +10°C° 0 mm 5 mps 722 mmHg 27%

    22 September, Sunday

    Time Temperature Precipitation Wind Pressure Humidity
    00:00 +9°C° 0 mm 5 mps 722 mmHg 29%
    01:00 +8°C° 0 mm 5 mps 722 mmHg 31%
    02:00 +7°C° 0 mm 5 mps 722 mmHg 34%
    03:00 +6°C° 0 mm 4 mps 722 mmHg 36%
    04:00 +6°C° 0 mm 5 mps 723 mmHg 38%
    05:00 +6°C° 0 mm 5 mps 723 mmHg 39%
    06:00 +6°C° 0 mm 5 mps 724 mmHg 41%
    07:00 +9°C° 0 mm 6 mps 724 mmHg 36%
    08:00 +12°C° 0 mm 7 mps 724 mmHg 31%
    09:00 +15°C° 0 mm 8 mps 724 mmHg 26%
    10:00 +18°C° 0 mm 7 mps 724 mmHg 23%
    11:00 +21°C° 0 mm 7 mps 724 mmHg 21%
    12:00 +23°C° 0 mm 6 mps 724 mmHg 18%
    13:00 +24°C° 0 mm 6 mps 723 mmHg 18%
    14:00 +25°C° 0 mm 5 mps 723 mmHg 17%
    15:00 +26°C° 0 mm 4 mps 722 mmHg 17%
    16:00 +25°C° 0 mm 4 mps 722 mmHg 19%
    17:00 +22°C° 0 mm 4 mps 722 mmHg 21%
    18:00 +21°C° 0 mm 3 mps 722 mmHg 22%
    19:00 +20°C° 0 mm 4 mps 723 mmHg 24%
    20:00 +19°C° 0 mm 4 mps 723 mmHg 26%
    21:00 +17°C° 0 mm 4 mps 724 mmHg 28%
    22:00 +15°C° 0 mm 5 mps 724 mmHg 29%
    23:00 +14°C° 0 mm 5 mps 724 mmHg 30%

    23 September, Monday

    Time Temperature Precipitation Wind Pressure Humidity
    00:00 +13°C° 0 mm 6 mps 724 mmHg 31%
    01:00 +13°C° 0 mm 6 mps 724 mmHg 31%
    02:00 +13°C° 0 mm 6 mps 724 mmHg 31%
    03:00 +13°C° 0 mm 6 mps 724 mmHg 31%
    04:00 +13°C° 0 mm 6 mps 724 mmHg 31%
    05:00 +11°C° 0 mm 6 mps 724 mmHg 32%
    06:00 +11°C° 0 mm 6 mps 725 mmHg 32%
    07:00 +12°C° 0 mm 7 mps 725 mmHg 31%
    08:00 +15°C° 0 mm 8 mps 725 mmHg 30%
    09:00 +16°C° 0 mm 9 mps 726 mmHg 29%
    10:00 +17°C° 0 mm 8 mps 726 mmHg 29%
    11:00 +18°C° 0 mm 7 mps 725 mmHg 30%
    12:00 +20°C° 0 mm 6 mps 725 mmHg 30%
    13:00 +21°C° 0 mm 6 mps 724 mmHg 30%
    14:00 +22°C° 0 mm 6 mps 724 mmHg 31%
    15:00 +22°C° 0 mm 5 mps 723 mmHg 31%
    16:00 +21°C° 0 mm 5 mps 723 mmHg 31%
    17:00 +20°C° 0 mm 5 mps 723 mmHg 32%
    18:00 +19°C° 0 mm 5 mps 724 mmHg 33%
    19:00 +16°C° 0 mm 5 mps 724 mmHg 46%
    20:00 +13°C° 0 mm 4 mps 724 mmHg 59%
    21:00 +11°C° 0 mm 3 mps 725 mmHg 72%
    22:00 +10°C° 0 mm 3 mps 725 mmHg 76%
    23:00 +10°C° 0 mm 3 mps 725 mmHg 79%

    24 September, Tuesday

    Time Temperature Precipitation Wind Pressure Humidity
    00:00 +9°C° 0 mm 3 mps 725 mmHg 83%
    01:00 +9°C° 0 mm 3 mps 724 mmHg 84%
    02:00 +8°C° 0 mm 3 mps 724 mmHg 86%
    03:00 +8°C° 0 mm 3 mps 723 mmHg 87%
    04:00 +7°C° 0 mm 3 mps 723 mmHg 87%
    05:00 +7°C° 0 mm 3 mps 723 mmHg 87%
    06:00 +5°C° 0 mm 3 mps 723 mmHg 87%
    07:00 +8°C° 0 mm 4 mps 724 mmHg 73%
    08:00 +12°C° 0 mm 4 mps 724 mmHg 59%
    09:00 +15°C° 0 mm 5 mps 725 mmHg 44%
    10:00 +17°C° 0 mm 6 mps 724 mmHg 37%
    11:00 +21°C° 0 mm 6 mps 724 mmHg 30%
    12:00 +23°C° 0 mm 7 mps 723 mmHg 23%
    13:00 +24°C° 0 mm 6 mps 723 mmHg 21%
    14:00 +24°C° 0 mm 6 mps 722 mmHg 19%
    15:00 +26°C° 0 mm 5 mps 721 mmHg 17%
    16:00 +25°C° 0 mm 5 mps 721 mmHg 19%
    17:00 +22°C° 0 mm 4 mps 721 mmHg 20%
    18:00 +21°C° 0 mm 3 mps 721 mmHg 22%
    19:00 +19°C° 0 mm 4 mps 722 mmHg 25%
    20:00 +17°C° 0 mm 4 mps 722 mmHg 28%
    21:00 +14°C° 0 mm 4 mps 723 mmHg 31%
    22:00 +13°C° 0 mm 4 mps 722 mmHg 37%
    23:00 +12°C° 0 mm 4 mps 722 mmHg 43%
    Show more